When you browse on this site, cookies collect data to enhance your experience and personalize the content and advertising you see.
Visit our Privacy Policy to learn more. By continuing to use the site, you agree to this use of cookies and data.
  • In Deutschland
  • Länderverzeichnis
  • Für 7 Tage
  • Wassertemperatur
  • Wetterkarte
  • Widgets
  • user-avatar
    Anmelden

    Stündliche Wetter Stuttgart

    Heute, 15 Oktober, Dienstag

    Zeit Temperatur Niederschläge Wind Luftdruck Luftfeuchtigkeit
    00:00 +16°C° 0 mm 1 m/S 732 mmHg 78%
    01:00 +15°C° 0 mm 1 m/S 732 mmHg 77%
    02:00 +15°C° 0 mm 1 m/S 731 mmHg 77%
    03:00 +15°C° 0 mm 1 m/S 731 mmHg 77%
    04:00 +15°C° 0 mm 1 m/S 731 mmHg 77%
    05:00 +15°C° 0 mm 1 m/S 730 mmHg 78%
    06:00 +14°C° 0 mm 1 m/S 730 mmHg 79%
    07:00 +14°C° 0 mm 1 m/S 730 mmHg 79%
    08:00 +16°C° 0 mm 1 m/S 729 mmHg 74%
    09:00 +19°C° 0 mm 1 m/S 729 mmHg 69%
    10:00 +21°C° 0 mm 1 m/S 729 mmHg 64%
    11:00 +22°C° 0 mm 1 m/S 728 mmHg 61%
    12:00 +23°C° 0 mm 1 m/S 728 mmHg 57%
    13:00 +24°C° 0 mm 1 m/S 728 mmHg 54%
    14:00 +21°C° 0 mm 3 m/S 728 mmHg 59%
    15:00 +20°C° 0 mm 4 m/S 728 mmHg 65%
    16:00 +19°C° 0 mm 5 m/S 728 mmHg 70%
    17:00 +16°C° 0.9 mm 5 m/S 729 mmHg 76%
    18:00 +14°C° 0.9 mm 6 m/S 730 mmHg 82%
    19:00 +11°C° 0.9 mm 6 m/S 732 mmHg 88%
    20:00 +11°C° 1.6 mm 6 m/S 732 mmHg 89%
    21:00 +10°C° 1.6 mm 6 m/S 733 mmHg 89%
    22:00 +10°C° 1.6 mm 5 m/S 734 mmHg 89%
    23:00 +10°C° 0.2 mm 5 m/S 735 mmHg 88%

    Morgen, 16 Oktober, Mittwoch

    Zeit Temperatur Niederschläge Wind Luftdruck Luftfeuchtigkeit
    00:00 +10°C° 0.2 mm 4 m/S 735 mmHg 86%
    01:00 +10°C° 0.2 mm 4 m/S 735 mmHg 84%
    02:00 +10°C° 0 mm 3 m/S 735 mmHg 85%
    03:00 +9°C° 0 mm 3 m/S 735 mmHg 85%
    04:00 +9°C° 0 mm 3 m/S 735 mmHg 85%
    05:00 +8°C° 0 mm 3 m/S 735 mmHg 86%
    06:00 +8°C° 0 mm 3 m/S 735 mmHg 86%
    07:00 +8°C° 0 mm 3 m/S 735 mmHg 87%
    08:00 +10°C° 0 mm 3 m/S 735 mmHg 80%
    09:00 +12°C° 0 mm 3 m/S 735 mmHg 74%
    10:00 +13°C° 0 mm 4 m/S 735 mmHg 67%
    11:00 +14°C° 0 mm 3 m/S 735 mmHg 64%
    12:00 +16°C° 0 mm 3 m/S 735 mmHg 60%
    13:00 +17°C° 0 mm 3 m/S 735 mmHg 56%
    14:00 +17°C° 0 mm 2 m/S 734 mmHg 58%
    15:00 +17°C° 0 mm 2 m/S 734 mmHg 61%
    16:00 +17°C° 0 mm 2 m/S 734 mmHg 64%
    17:00 +16°C° 0 mm 2 m/S 734 mmHg 69%
    18:00 +14°C° 0 mm 2 m/S 734 mmHg 73%
    19:00 +13°C° 0 mm 2 m/S 734 mmHg 78%
    20:00 +12°C° 0 mm 2 m/S 734 mmHg 77%
    21:00 +12°C° 0 mm 2 m/S 735 mmHg 75%
    22:00 +12°C° 0 mm 2 m/S 735 mmHg 74%
    23:00 +12°C° 0 mm 2 m/S 735 mmHg 72%

    übermorgen, 17 Oktober, Donnerstag

    Zeit Temperatur Niederschläge Wind Luftdruck Luftfeuchtigkeit
    00:00 +10°C° 0 mm 2 m/S 735 mmHg 70%
    01:00 +10°C° 0 mm 2 m/S 735 mmHg 67%
    02:00 +12°C° 0 mm 2 m/S 735 mmHg 66%
    03:00 +12°C° 0 mm 2 m/S 735 mmHg 64%
    04:00 +12°C° 0 mm 2 m/S 735 mmHg 62%
    05:00 +12°C° 0 mm 2 m/S 735 mmHg 65%
    06:00 +13°C° 0 mm 2 m/S 735 mmHg 67%
    07:00 +13°C° 0 mm 2 m/S 735 mmHg 70%
    08:00 +14°C° 0 mm 2 m/S 736 mmHg 67%
    09:00 +15°C° 0 mm 2 m/S 736 mmHg 65%
    10:00 +16°C° 0 mm 2 m/S 736 mmHg 63%
    11:00 +17°C° 0 mm 2 m/S 736 mmHg 62%
    12:00 +18°C° 0 mm 2 m/S 736 mmHg 61%
    13:00 +19°C° 0 mm 3 m/S 736 mmHg 60%
    14:00 +18°C° 0 mm 2 m/S 736 mmHg 67%
    15:00 +16°C° 0 mm 1 m/S 736 mmHg 74%
    16:00 +15°C° 0 mm 1 m/S 736 mmHg 80%
    17:00 +15°C° 0 mm 1 m/S 736 mmHg 82%
    18:00 +14°C° 0 mm 1 m/S 736 mmHg 83%
    19:00 +14°C° 0 mm 1 m/S 736 mmHg 85%
    20:00 +13°C° 0 mm 1 m/S 736 mmHg 85%
    21:00 +13°C° 0 mm 1 m/S 737 mmHg 85%
    22:00 +13°C° 0 mm 1 m/S 737 mmHg 84%
    23:00 +13°C° 0 mm 1 m/S 737 mmHg 83%

    18 Oktober, Freitag

    Zeit Temperatur Niederschläge Wind Luftdruck Luftfeuchtigkeit
    00:00 +13°C° 0 mm 1 m/S 736 mmHg 82%
    01:00 +13°C° 0 mm 1 m/S 736 mmHg 81%
    02:00 +13°C° 0 mm 1 m/S 736 mmHg 82%
    03:00 +13°C° 0 mm 1 m/S 736 mmHg 82%
    04:00 +14°C° 0 mm 1 m/S 736 mmHg 83%
    05:00 +14°C° 0 mm 2 m/S 736 mmHg 83%
    06:00 +14°C° 0 mm 2 m/S 736 mmHg 83%
    07:00 +14°C° 0 mm 2 m/S 736 mmHg 84%
    08:00 +15°C° 0.1 mm 2 m/S 736 mmHg 82%
    09:00 +15°C° 0.1 mm 2 m/S 736 mmHg 81%
    10:00 +16°C° 0.1 mm 2 m/S 736 mmHg 80%
    11:00 +17°C° 0.5 mm 3 m/S 736 mmHg 77%
    12:00 +17°C° 0.5 mm 3 m/S 736 mmHg 75%
    13:00 +18°C° 0.5 mm 3 m/S 736 mmHg 73%
    14:00 +18°C° 0.7 mm 2 m/S 736 mmHg 76%
    15:00 +17°C° 0.7 mm 2 m/S 735 mmHg 79%
    16:00 +17°C° 0.7 mm 2 m/S 735 mmHg 82%
    17:00 +16°C° 0.1 mm 1 m/S 735 mmHg 85%
    18:00 +15°C° 0.1 mm 1 m/S 735 mmHg 87%
    19:00 +13°C° 0.1 mm 0 m/S 736 mmHg 90%
    20:00 +12°C° 0 mm 0 m/S 736 mmHg 90%
    21:00 +12°C° 0 mm 0 m/S 736 mmHg 90%
    22:00 +12°C° 0 mm 0 m/S 736 mmHg 91%
    23:00 +13°C° 0.2 mm 1 m/S 736 mmHg 91%

    19 Oktober, Samstag

    Zeit Temperatur Niederschläge Wind Luftdruck Luftfeuchtigkeit
    00:00 +13°C° 0.2 mm 1 m/S 736 mmHg 91%
    01:00 +13°C° 0.2 mm 1 m/S 735 mmHg 92%
    02:00 +13°C° 0 mm 1 m/S 735 mmHg 92%
    03:00 +13°C° 0 mm 1 m/S 735 mmHg 92%
    04:00 +12°C° 0 mm 1 m/S 735 mmHg 92%
    05:00 +12°C° 0 mm 1 m/S 735 mmHg 92%
    06:00 +12°C° 0 mm 1 m/S 735 mmHg 92%
    07:00 +12°C° 0 mm 1 m/S 735 mmHg 92%
    08:00 +13°C° 0 mm 1 m/S 734 mmHg 87%
    09:00 +15°C° 0 mm 1 m/S 734 mmHg 83%
    10:00 +16°C° 0 mm 1 m/S 734 mmHg 79%
    11:00 +18°C° 0 mm 1 m/S 733 mmHg 75%
    12:00 +18°C° 0 mm 2 m/S 733 mmHg 72%
    13:00 +19°C° 0 mm 2 m/S 732 mmHg 68%
    14:00 +18°C° 0.4 mm 2 m/S 731 mmHg 71%
    15:00 +18°C° 0.4 mm 2 m/S 731 mmHg 74%
    16:00 +19°C° 0.4 mm 1 m/S 730 mmHg 77%
    17:00 +17°C° 0.1 mm 2 m/S 730 mmHg 79%
    18:00 +16°C° 0.1 mm 2 m/S 729 mmHg 81%
    19:00 +15°C° 0.1 mm 2 m/S 729 mmHg 83%
    20:00 +15°C° 0.1 mm 2 m/S 729 mmHg 85%
    21:00 +14°C° 0.1 mm 2 m/S 729 mmHg 87%
    22:00 +14°C° 0.1 mm 2 m/S 729 mmHg 89%
    23:00 +14°C° 0 mm 2 m/S 729 mmHg 90%

    20 Oktober, Sonntag

    Zeit Temperatur Niederschläge Wind Luftdruck Luftfeuchtigkeit
    00:00 +13°C° 0 mm 2 m/S 728 mmHg 91%
    01:00 +12°C° 0 mm 3 m/S 728 mmHg 91%
    02:00 +13°C° 0.4 mm 2 m/S 729 mmHg 91%
    03:00 +13°C° 0.4 mm 2 m/S 729 mmHg 92%
    04:00 +13°C° 0.4 mm 1 m/S 729 mmHg 92%
    05:00 +12°C° 0.7 mm 2 m/S 729 mmHg 91%
    06:00 +11°C° 0.7 mm 3 m/S 730 mmHg 91%
    07:00 +11°C° 0.7 mm 3 m/S 730 mmHg 90%
    08:00 +11°C° 0.4 mm 4 m/S 730 mmHg 89%
    09:00 +11°C° 0.4 mm 4 m/S 731 mmHg 87%
    10:00 +12°C° 0.4 mm 4 m/S 731 mmHg 86%
    11:00 +12°C° 0.4 mm 4 m/S 731 mmHg 84%
    12:00 +12°C° 0.4 mm 4 m/S 732 mmHg 81%
    13:00 +13°C° 0.4 mm 3 m/S 732 mmHg 79%
    14:00 +13°C° 0.1 mm 3 m/S 732 mmHg 79%
    15:00 +13°C° 0.1 mm 3 m/S 732 mmHg 78%
    16:00 +13°C° 0.1 mm 3 m/S 732 mmHg 77%
    17:00 +12°C° 0.1 mm 3 m/S 733 mmHg 80%
    18:00 +11°C° 0.1 mm 3 m/S 733 mmHg 83%
    19:00 +10°C° 0.1 mm 3 m/S 733 mmHg 86%
    20:00 +10°C° 0 mm 3 m/S 734 mmHg 86%
    21:00 +9°C° 0 mm 2 m/S 734 mmHg 86%
    22:00 +9°C° 0 mm 2 m/S 734 mmHg 86%
    23:00 +9°C° 0 mm 2 m/S 734 mmHg 86%
    Mehr zeigen